Wind_Speed
25 25 26 27 28 28 28 28 26 25 24 22 21 19 18 16 14 13 11 10 9 9 9 7 4 2 0 1 1 1 2 3 6 9 10 10 12 13 13 14 17 19 22 23 21 20 19 20 24 25 23 20 18 16 12 11 10 9 12 15 15 17 17 14 14 11 8 6 5 6 7 7 6 7 8 5 4 4 3 3 4 4 4 6 9 9 10 10
25 26 27 27 28 29 29 29 29 28 26 25 23 22 20 19 17 15 13 11 11 11 11 9 7 5 2 1 0 0 2 2 4 5 3 6 11 13 13 13 16 19 23 24 23 22 20 22 27 26 24 21 19 17 12 12 12 10 11 12 10 13 15 15 13 9 6 4 4 7 8 8 7 7 7 4 3 3 3 4 4 4 3 5 7 9 10 9
25 26 27 28 28 29 30 30 31 30 29 27 26 24 23 21 20 18 16 14 12 12 12 11 9 7 5 3 1 1 2 2 2 2 4 8 11 13 13 14 16 19 22 25 24 23 21 24 28 26 23 20 19 19 16 14 11 10 11 11 9 9 12 14 11 6 4 4 7 9 8 8 8 7 6 3 3 3 3 4 4 3 3 4 6 8 9 10
21 25 27 28 29 29 30 30 31 32 31 30 28 27 25 23 22 20 18 16 14 14 14 13 11 9 7 5 3 2 2 2 2 3 7 9 10 12 13 14 15 17 21 24 25 24 23 26 27 21 16 14 14 16 17 16 12 10 9 10 9 7 11 12 7 4 4 5 8 9 7 8 9 8 6 3 3 3 3 3 4 2 2 4 5 7 9 10
16 20 24 27 29 29 30 30 31 32 33 32 31 29 28 26 24 23 21 19 17 16 15 15 13 11 9 7 5 3 3 4 2 2 7 8 9 12 13 13 14 16 20 24 25 24 24 26 24 16 12 14 11 10 15 17 14 8 2 9 10 9 10 9 5 2 5 7 8 9 8 9 10 9 6 3 4 4 3 3 3 2 2 2 4 5 8 9
14 15 18 23 27 30 30 30 31 32 33 33 33 32 30 29 27 25 24 22 20 18 17 16 15 14 12 10 7 5 5 5 2 2 5 7 8 11 13 13 12 13 18 24 25 24 24 23 21 14 12 15 12 10 16 16 11 7 4 11 14 11 8 8 4 1 5 7 8 9 8 9 11 10 8 5 5 4 4 4 4 3 2 1 1 3 5 7
15 14 15 17 22 27 30 31 31 32 33 34 35 34 33 32 30 28 26 24 22 21 19 18 17 15 14 12 10 9 7 3 2 3 5 7 8 10 12 12 12 13 17 23 25 24 23 22 20 15 13 13 12 15 17 13 6 4 7 12 13 12 10 8 3 2 5 7 7 7 7 10 12 11 8 6 5 4 4 5 5 4 4 2 2 2 3 5
17 16 15 15 17 20 26 30 32 32 33 34 35 35 36 34 33 31 29 27 25 23 21 20 19 17 16 14 13 13 8 5 5 4 6 8 9 10 12 13 13 13 17 24 27 26 24 23 22 18 16 17 17 16 16 13 5 8 12 14 12 11 11 7 1 4 6 6 5 6 7 11 13 11 8 5 5 4 4 5 5 4 4 3 2 3 3 4
18 18 17 17 16 16 19 24 30 32 33 33 34 35 36 36 35 34 32 30 28 26 24 22 21 19 18 16 16 15 11 10 8 5 6 8 9 11 13 14 14 16 20 27 29 28 25 24 24 20 19 19 18 15 15 14 11 14 16 17 13 11 12 5 3 5 4 3 4 5 6 9 12 10 7 5 5 4 5 5 4 4 3 2 3 3 3 3
19 19 19 19 18 18 17 18 23 29 33 34 34 35 36 37 38 37 35 33 31 29 26 24 22 21 20 19 19 17 15 13 9 6 6 8 10 12 15 16 17 18 21 26 28 27 27 26 25 22 20 20 19 15 11 11 13 16 16 16 15 13 12 4 4 5 3 3 4 5 5 7 9 9 7 5 5 6 6 5 4 4 3 2 3 2 2 2
20 20 20 20 20 20 19 18 18 22 28 33 35 35 36 37 38 39 38 36 34 32 29 27 25 23 22 21 21 19 17 15 11 9 7 8 11 13 16 18 18 20 20 24 27 28 29 27 25 22 20 20 19 17 9 8 12 17 19 18 17 15 11 3 4 4 3 3 3 5 7 7 7 7 7 5 5 6 6 5 4 4 4 3 3 2 2 2
21 21 21 21 21 21 21 20 19 18 21 27 33 36 36 37 38 39 40 38 37 35 33 30 27 25 23 24 23 21 19 16 14 13 10 9 10 12 16 19 21 22 21 24 27 29 30 28 25 23 21 19 18 18 10 8 13 17 20 20 18 14 9 5 5 4 3 2 3 4 6 5 4 6 7 6 5 5 4 4 4 4 5 4 4 3 3 2
22 22 21 22 22 22 22 22 22 20 19 21 27 34 37 37 38 39 40 40 40 38 36 33 30 27 26 26 24 23 22 19 17 16 12 9 9 11 15 19 23 24 25 26 28 29 29 29 28 26 24 20 20 21 14 10 15 17 18 18 16 11 7 5 4 4 3 4 3 3 3 2 3 5 6 7 5 3 3 3 3 5 5 5 5 4 4 3
23 23 23 23 23 23 23 23 23 23 21 20 21 27 34 38 39 39 40 41 41 41 39 36 34 31 28 28 26 25 24 21 19 18 14 11 11 12 14 19 23 25 27 27 28 29 29 29 28 27 24 20 21 22 18 13 17 18 16 14 11 7 6 5 5 6 7 9 8 5 4 3 4 6 6 7 6 3 2 2 3 4 5 5 5 5 5 5
22 23 24 24 24 24 24 24 24 24 24 22 21 21 27 35 40 40 40 41 41 42 41 39 37 34 31 30 28 27 26 24 22 20 17 14 13 14 16 19 24 26 26 28 29 29 28 27 26 24 20 17 19 23 21 18 20 19 15 13 10 7 7 6 5 7 8 10 12 9 7 4 5 7 6 6 6 4 2 0 2 3 4 5 5 6 6 5
22 23 23 24 25 25 25 24 25 25 25 24 24 22 22 29 38 41 40 41 41 41 41 41 39 37 35 33 31 30 30 29 26 22 20 17 16 18 20 21 25 27 27 28 29 30 29 27 26 25 20 18 20 25 25 23 23 20 15 14 13 9 8 6 4 5 5 6 10 9 5 4 5 6 6 5 5 5 3 1 1 1 2 3 4 4 5 6
21 22 23 24 25 25 26 26 25 26 27 26 25 25 23 24 31 38 41 41 41 41 40 41 41 40 38 36 34 33 32 31 28 24 22 20 19 21 21 22 26 28 29 29 30 30 28 27 28 26 21 21 23 28 29 28 25 19 13 13 12 10 8 4 2 1 2 0 6 7 5 4 2 3 4 4 5 5 4 1 0 1 1 2 3 3 4 6
22 22 23 24 24 25 26 26 26 26 27 28 27 27 27 25 26 32 39 41 41 42 41 41 42 41 40 40 37 35 34 33 30 26 24 23 22 22 22 23 26 29 30 30 29 28 26 27 30 28 23 25 24 26 31 29 17 9 6 1 5 8 5 2 5 6 8 7 5 6 4 1 3 2 3 3 2 4 4 2 2 1 0 1 3 3 3 3
22 23 23 24 24 25 26 26 26 26 28 30 28 28 29 28 26 27 34 40 42 43 42 42 42 42 42 42 40 38 36 35 33 30 28 27 24 23 24 25 27 29 30 27 26 26 25 27 31 28 23 25 23 21 25 23 13 9 7 7 2 3 3 6 7 9 11 12 11 10 5 4 6 4 3 4 3 1 3 1 2 2 2 2 2 3 3 3
22 23 23 24 25 25 26 25 25 26 29 31 31 30 30 29 28 26 26 32 39 42 42 41 41 42 43 43 42 40 38 37 35 33 31 30 28 26 26 27 28 28 27 25 24 25 26 28 31 26 21 23 22 20 22 22 16 9 3 3 2 0 5 8 8 10 12 15 15 11 6 7 7 7 8 9 8 5 1 2 1 2 3 4 3 3 3 3
23 23 23 24 25 26 26 26 25 25 29 32 32 32 31 28 28 28 24 23 31 39 41 39 38 41 43 43 42 41 40 39 37 37 35 33 31 29 29 29 28 25 23 23 24 26 28 30 29 24 21 24 23 22 25 25 19 13 7 4 5 6 8 10 9 10 12 17 18 11 5 9 10 7 9 11 11 10 6 2 2 3 4 4 4 4 5 3
24 23 24 24 25 26 26 26 25 26 28 31 33 33 31 29 29 30 27 20 25 36 41 39 36 38 42 43 42 43 42 41 39 39 38 37 34 32 31 30 27 24 24 25 26 28 29 29 26 22 22 25 24 24 28 28 23 18 14 15 13 10 10 12 12 13 15 18 19 14 9 13 14 9 10 12 11 11 11 6 5 5 5 6 4 5 6 5
26 25 24 24 25 26 27 27 25 26 28 31 33 32 30 31 31 31 30 23 23 33 40 40 37 37 41 42 42 43 43 41 40 40 40 39 36 33 33 31 27 26 27 27 27 27 26 25 24 23 24 26 24 25 30 29 25 23 23 24 20 15 16 16 14 16 17 16 18 17 16 19 18 14 14 15 10 7 9 9 9 7 6 7 6 5 6 7
28 27 26 25 26 26 26 27 26 26 29 31 31 30 30 31 33 32 31 27 22 28 36 40 41 38 37 40 42 43 42 42 42 40 41 41 38 36 34 31 29 29 28 27 27 26 24 24 25 26 28 27 23 26 31 29 25 27 28 28 24 21 19 15 14 18 16 15 18 20 21 22 20 18 17 17 13 7 10 9 10 10 7 6 6 7 8 8
30 29 27 26 26 27 27 27 27 27 29 30 29 30 31 31 33 32 32 29 21 22 32 36 38 35 34 39 42 42 42 43 43 42 41 41 40 38 35 33 32 31 29 28 29 26 25 27 28 30 31 28 27 30 31 28 27 28 28 27 24 18 15 14 18 22 21 20 23 23 23 23 21 20 18 17 15 11 11 9 8 10 9 5 5 6 8 9
33 31 29 28 27 27 28 27 27 27 28 30 28 30 33 31 33 32 31 31 21 18 29 32 32 34 37 38 37 40 43 41 42 44 42 42 42 40 37 36 34 31 30 30 30 28 27 30 31 31 32 29 29 31 30 28 29 28 26 25 22 16 14 17 21 24 25 22 23 24 23 23 24 21 17 16 15 13 11 8 7 8 8 7 7 7 7 9
34 33 31 29 28 27 28 29 29 27 27 29 28 30 33 32 32 31 30 32 23 18 26 27 27 32 35 35 34 38 41 38 41 44 42 42 44 42 41 39 35 33 32 33 33 29 28 32 33 32 32 31 30 30 28 29 30 29 28 28 23 16 14 18 20 22 21 19 23 27 24 25 26 20 17 16 15 12 8 8 9 8 7 8 10 10 9 10
35 35 33 31 30 28 28 30 30 28 27 29 29 30 32 33 32 30 30 30 23 19 22 22 23 29 32 35 36 36 37 37 40 41 40 42 45 44 43 40 37 34 34 36 34 28 28 32 32 32 33 33 30 28 28 30 28 26 29 30 24 14 15 19 21 22 20 20 27 29 25 27 26 19 17 17 14 11 7 8 10 9 8 8 9 11 12 12
35 35 35 33 32 29 27 30 31 29 27 28 31 30 31 33 31 31 31 27 21 18 18 19 22 26 30 36 37 34 36 39 40 39 39 43 45 45 44 41 38 36 36 37 33 30 31 31 30 33 35 32 27 26 30 31 26 26 32 33 28 19 18 22 24 22 23 25 29 28 25 27 25 19 19 19 15 13 11 11 11 10 10 10 9 10 12 13
35 36 36 34 34 30 27 30 31 30 28 28 31 30 31 33 31 32 31 21 19 20 17 17 20 24 28 33 34 32 33 37 39 40 41 42 44 45 44 41 40 39 39 38 35 33 33 30 31 35 36 32 28 27 29 29 27 30 34 35 34 28 21 23 27 25 26 29 27 25 25 26 24 22 21 18 14 14 15 16 14 14 15 15 13 11 11 12
35 36 36 35 34 31 29 31 31 30 30 30 31 30 31 32 33 34 25 15 18 20 14 13 19 24 27 28 29 28 28 32 37 40 41 42 44 46 46 45 44 42 42 42 39 37 36 35 36 35 33 32 31 28 27 29 32 35 36 36 37 33 25 26 30 29 30 31 26 23 24 27 27 25 23 18 13 14 18 18 15 16 17 18 17 14 11 12
36 36 36 36 34 31 31 33 31 29 32 32 31 31 31 32 36 33 21 15 18 14 12 14 16 19 22 23 24 23 24 28 33 37 38 40 45 47 47 47 47 45 45 44 41 39 39 39 38 34 30 30 31 29 28 30 33 35 36 37 38 35 31 32 32 30 30 29 26 23 23 28 30 26 23 18 15 16 21 20 16 16 18 19 20 16 10 8
37 37 37 36 34 31 32 35 32 29 32 33 32 32 32 35 36 29 20 19 16 12 17 19 18 13 14 18 19 18 21 26 30 33 35 37 42 45 45 46 47 46 45 43 40 40 40 40 40 37 32 30 31 32 34 34 32 33 34 36 40 39 36 34 32 31 29 27 25 24 24 29 31 28 25 19 17 20 23 21 18 18 20 22 23 18 11 8
38 37 37 36 34 31 33 36 34 30 31 33 34 34 35 36 33 25 20 20 14 18 21 22 24 18 14 14 14 15 18 22 26 30 33 36 40 44 45 46 47 47 45 43 41 40 41 42 41 39 36 32 31 32 32 32 30 32 36 39 41 42 39 35 32 32 31 28 27 28 32 37 36 33 29 24 20 20 20 20 20 22 23 24 24 21 16 15
39 38 36 36 34 33 34 37 36 32 31 33 35 36 36 34 28 23 20 16 15 24 25 23 26 25 21 17 12 12 14 17 22 26 30 35 38 41 44 45 46 46 46 45 43 41 41 42 39 36 35 31 32 31 30 31 30 31 39 42 41 41 39 35 33 31 29 30 32 35 39 42 40 36 34 32 29 25 20 20 21 22 22 23 22 20 17 17
39 38 36 35 35 36 37 37 37 34 32 34 37 37 34 30 25 22 18 16 21 30 29 27 29 28 25 21 15 12 10 11 17 22 28 32 34 37 41 43 45 46 46 45 43 41 41 40 36 34 32 30 29 29 30 33 33 33 42 45 42 39 36 33 31 29 28 29 32 34 38 43 41 37 34 34 34 29 24 21 21 21 21 21 19 18 17 16
39 38 37 36 37 39 38 36 35 34 33 35 37 35 30 27 25 21 18 19 28 33 32 31 29 29 27 24 19 14 10 10 16 21 26 29 31 35 37 40 43 44 45 43 40 39 39 38 36 35 32 27 24 27 31 32 30 31 38 44 42 37 35 34 31 29 29 29 29 28 30 36 35 31 28 27 27 25 22 21 21 21 21 19 19 18 17 17
39 39 38 38 38 40 39 36 35 35 35 36 35 32 29 27 23 20 19 23 33 36 36 33 29 30 30 26 22 19 18 15 16 21 26 29 30 32 32 35 40 42 42 40 39 37 37 36 36 35 32 25 23 29 34 34 31 28 29 36 41 38 36 37 34 31 31 31 32 28 25 26 25 24 24 22 22 22 21 21 21 20 20 20 21 21 20 19
39 39 40 39 39 39 38 37 35 36 37 36 32 29 28 25 21 21 22 29 38 40 39 35 29 30 30 27 26 27 26 21 17 19 25 30 30 28 28 29 33 37 40 40 40 37 36 36 35 33 31 27 27 31 36 36 33 30 28 31 38 37 33 34 33 33 32 33 36 34 29 27 24 23 23 22 21 21 21 21 21 21 21 23 24 24 22 22
39 39 40 40 39 38 38 38 37 37 36 33 30 29 28 25 23 24 25 32 42 43 40 38 30 26 27 27 30 34 31 27 22 21 23 29 30 27 26 27 26 28 32 38 39 37 36 37 34 33 32 30 32 33 30 26 26 33 37 36 37 37 33 31 31 33 35 36 36 33 31 29 26 23 22 22 21 21 20 18 18 21 23 24 24 23 24 25
40 40 40 40 40 39 39 39 37 36 35 32 30 29 29 27 25 26 27 35 44 46 43 41 34 27 26 28 32 33 31 31 29 25 24 27 31 30 27 25 23 21 24 33 39 39 39 38 34 35 33 32 34 30 22 16 19 30 40 38 35 33 30 30 31 30 31 33 32 28 27 27 26 24 23 25 25 25 23 22 21 22 22 22 23 24 26 27
40 40 40 40 40 39 39 39 37 36 34 31 30 30 31 30 28 28 30 36 44 47 45 43 38 31 28 29 30 26 24 29 30 27 26 26 28 29 28 25 22 19 20 28 36 38 38 36 34 36 35 32 32 28 22 18 19 28 36 34 31 30 29 29 29 24 22 25 27 26 28 30 30 29 28 29 30 30 29 27 24 23 22 22 23 25 27 28
39 40 40 40 40 40 39 39 38 36 32 30 31 33 33 32 30 29 31 36 44 48 48 44 39 35 32 31 31 24 20 25 27 22 25 30 27 24 23 23 20 19 20 24 30 37 39 38 37 38 36 33 30 26 23 20 22 31 36 33 31 31 30 30 29 24 21 23 25 26 29 31 31 30 31 30 31 32 32 29 26 23 23 24 25 27 28 29
38 39 42 42 41 41 40 39 37 35 32 31 32 33 34 33 31 31 32 37 43 48 50 47 40 37 35 33 32 26 20 24 27 21 23 33 32 23 19 18 17 18 21 23 26 34 43 43 40 40 39 36 32 29 27 25 26 34 38 35 33 32 33 33 32 28 25 23 24 24 27 29 29 28 28 27 28 30 31 30 28 26 26 27 27 27 29 31
38 39 42 43 41 40 39 37 36 36 34 34 34 34 35 35 32 32 33 37 43 48 51 50 44 39 38 37 34 28 23 26 28 25 25 33 36 30 23 21 19 16 18 20 20 29 42 46 42 43 43 40 36 32 30 29 28 31 34 34 33 33 36 38 36 33 30 26 25 25 26 28 29 27 25 25 25 26 29 31 31 30 29 28 27 27 28 31
39 39 41 42 41 39 37 35 36 37 36 36 35 35 37 36 34 33 35 38 41 46 52 53 48 43 41 42 38 30 25 28 30 28 29 32 36 35 31 30 31 26 19 18 18 24 39 47 45 43 43 41 37 29 24 25 27 28 30 30 30 30 35 41 40 37 35 30 28 27 26 26 28 27 26 27 26 26 29 31 32 32 31 29 30 29 29 29
40 38 39 40 40 39 37 37 37 36 35 35 34 35 37 38 36 34 36 38 40 44 50 54 53 48 44 44 44 36 28 29 32 30 32 36 38 38 35 35 37 35 28 24 22 23 34 47 47 42 40 37 32 27 26 27 26 25 25 26 27 26 30 41 43 39 36 34 30 27 26 25 24 25 27 29 29 30 31 32 32 33 32 33 33 32 31 31
40 38 38 39 40 40 38 37 36 36 35 35 34 35 37 38 38 35 35 39 41 42 46 51 53 51 46 45 48 44 32 29 31 33 36 42 43 42 40 37 36 36 33 30 28 26 30 42 49 43 39 36 29 26 29 32 31 28 24 24 25 23 25 36 43 40 38 39 35 31 30 30 28 26 27 28 29 29 30 31 32 33 35 37 36 33 32 31
40 39 38 39 40 41 39 37 36 35 35 35 35 35 37 39 40 39 38 40 43 43 45 46 48 51 49 46 49 48 40 33 31 34 39 46 47 44 43 42 39 37 35 33 32 30 29 37 47 46 40 36 31 27 28 32 35 32 27 25 26 25 24 29 38 41 39 38 38 36 35 35 32 30 27 25 25 26 28 31 32 34 37 38 36 34 33 30
41 39 38 39 38 40 40 37 36 36 35 35 36 37 38 39 42 44 42 43 45 46 48 47 44 49 52 47 44 45 44 40 35 34 40 46 46 43 42 43 42 38 37 36 34 35 33 34 43 48 43 38 33 30 29 32 35 33 29 30 31 32 31 29 33 40 40 36 36 36 36 36 34 32 29 27 27 29 30 32 34 37 39 39 39 38 36 34
42 40 38 38 38 38 40 38 37 37 36 37 38 39 39 39 42 46 45 46 47 47 51 51 45 47 53 47 41 42 44 45 41 39 44 47 45 42 42 43 41 36 38 40 39 39 37 36 39 44 45 43 39 36 32 32 34 33 31 34 36 35 35 32 33 38 40 36 35 36 39 37 33 31 30 29 30 32 34 36 39 40 40 40 40 40 39 37
41 40 38 38 38 38 39 38 38 38 38 39 40 39 40 40 42 46 47 47 49 48 51 55 51 48 51 47 42 43 44 45 45 44 48 49 46 46 45 44 39 33 35 42 43 41 40 40 40 41 43 43 41 40 37 34 34 34 34 38 39 37 34 32 33 38 39 36 35 36 39 37 32 30 31 32 34 36 38 39 40 40 40 41 41 42 42 39
Wind_Direction
247 246 245 244 243 243 242 242 241 240 240 240 239 238 239 240 240 240 240 239 235 237 237 234 229 228 255 57 55 108 160 169 173 187 198 202 193 182 177 174 165 159 156 159 163 157 149 136 123 116 112 107 102 97 85 71 57 43 28 29 24 354 341 346 354 357 349 335 357 20 24 25 27 39 40 45 54 45 34 41 62 73 101 130 137 140 138 135
250 247 246 245 244 244 243 242 242 241 240 240 240 239 238 238 239 238 237 235 233 234 236 233 224 222 224 189 44 182 212 200 191 199 194 188 193 191 184 176 168 162 159 163 166 161 155 141 130 120 114 119 119 112 97 72 45 23 26 29 12 346 342 341 343 350 347 348 25 25 21 20 18 42 57 54 54 46 27 34 48 75 108 126 134 137 136 134
254 250 248 246 245 244 244 243 242 241 240 240 240 240 238 237 237 238 236 233 232 232 234 232 224 220 219 217 230 245 243 238 222 141 148 185 200 200 189 179 173 167 165 166 166 163 155 145 139 126 120 126 122 114 97 72 43 23 23 9 345 335 337 331 323 328 346 13 35 32 25 21 19 39 59 41 31 30 14 22 26 63 110 134 136 130 129 130
260 255 251 249 246 244 244 243 243 241 240 240 239 239 239 238 236 236 236 233 230 230 232 231 226 220 218 220 221 237 249 242 249 160 174 197 204 202 194 184 177 170 170 169 167 162 153 150 148 140 142 146 129 115 101 84 62 41 10 332 316 313 324 321 305 313 10 33 36 38 27 23 30 42 52 18 8 13 4 10 7 43 116 148 137 125 125 125
272 262 256 252 249 246 244 242 243 242 241 240 239 238 238 238 237 236 235 234 231 228 230 229 226 221 215 218 220 225 229 224 242 192 196 206 196 198 201 192 179 171 170 169 166 160 155 156 153 149 165 180 176 133 98 84 79 83 314 298 301 312 321 313 287 313 36 49 41 40 26 26 38 45 49 28 20 11 354 14 15 47 108 153 140 123 119 118
285 276 266 257 252 249 246 243 242 241 242 241 240 238 237 237 237 236 235 234 232 229 228 228 225 221 213 213 218 219 221 222 241 218 212 212 199 201 203 198 181 167 167 167 165 160 159 157 149 155 184 194 183 126 94 85 96 139 257 296 299 303 301 289 280 33 52 50 45 47 37 33 40 45 46 29 24 12 3 34 31 37 53 69 112 104 106 108
288 286 280 270 259 253 249 246 243 241 240 240 240 239 237 236 236 236 235 234 233 231 228 226 225 222 214 211 212 220 223 221 236 231 216 208 205 203 202 201 183 166 163 163 161 160 160 151 144 162 184 174 139 110 101 101 120 200 265 288 293 289 282 285 295 66 50 39 43 54 49 44 47 51 49 26 16 11 21 44 32 19 25 21 26 54 85 99
285 285 284 281 274 263 254 249 246 243 241 239 239 239 239 237 235 235 235 233 233 232 229 226 224 222 217 210 211 221 218 203 215 223 216 206 203 198 197 201 185 170 162 159 161 164 162 149 146 156 151 135 125 123 121 126 191 258 271 288 306 294 286 296 6 67 50 37 39 53 51 49 52 57 60 43 29 26 43 52 37 19 11 10 32 51 69 92
281 282 282 281 281 276 266 255 248 246 243 241 238 237 238 238 236 234 234 233 232 232 230 227 224 221 218 212 214 220 215 212 217 214 212 205 201 193 192 196 188 179 169 166 170 169 165 153 153 156 144 132 129 135 131 138 203 251 274 290 302 292 292 310 86 91 83 70 65 68 55 47 52 59 66 59 48 49 58 56 43 32 13 8 38 54 67 93
280 279 279 279 279 278 277 268 256 248 244 243 240 237 236 236 237 235 233 233 232 231 230 228 225 221 219 215 216 218 218 220 218 216 220 206 199 192 191 193 191 186 178 177 176 171 168 158 154 153 140 133 131 135 135 146 204 250 272 279 285 290 296 315 107 115 107 82 82 92 82 61 54 58 66 65 59 56 55 55 48 46 42 30 39 49 69 99
282 280 278 277 277 276 276 275 270 258 248 244 242 240 237 235 235 235 234 232 232 231 230 229 226 222 219 217 218 218 222 223 216 216 218 209 203 192 191 192 191 191 187 182 178 173 171 162 158 154 143 146 141 129 133 177 223 256 264 265 276 282 281 260 154 141 106 70 68 92 95 80 61 61 69 64 59 58 55 60 58 60 67 59 49 55 72 100
283 282 280 277 276 275 275 274 273 270 259 248 242 241 239 237 234 233 234 233 232 231 230 228 226 224 219 218 219 218 222 220 215 216 211 210 212 199 193 191 190 193 191 184 180 178 175 169 168 169 166 164 144 121 128 214 238 249 250 256 266 268 260 227 177 150 120 76 38 58 79 81 78 78 77 69 58 59 60 69 74 74 79 74 69 72 82 100
281 281 281 279 277 275 274 273 272 271 269 260 248 242 239 239 236 232 232 232 232 231 230 228 226 224 220 219 218 217 222 218 212 214 211 210 215 210 198 192 191 193 192 188 184 182 180 176 176 185 185 168 145 133 142 211 238 241 245 252 253 250 236 206 165 142 153 132 93 70 87 101 116 99 86 79 71 67 71 82 92 87 90 91 86 86 95 108
278 279 280 280 279 277 274 273 272 271 269 268 261 249 241 239 238 235 232 230 230 230 230 228 226 224 222 221 217 216 222 221 214 210 210 207 208 213 205 197 197 197 196 193 190 188 187 184 183 194 193 172 156 143 147 197 230 235 238 241 228 216 217 201 155 146 158 143 129 142 151 147 123 107 101 87 75 72 73 82 97 91 98 101 104 107 106 113
277 276 277 278 278 278 276 274 272 271 269 268 267 260 248 240 237 236 234 231 229 229 229 229 227 224 222 221 218 216 218 220 216 210 209 205 200 207 208 202 200 202 202 199 196 193 193 189 186 195 195 187 172 148 154 193 224 226 220 233 230 222 229 211 166 146 150 144 134 144 155 136 111 104 105 98 81 71 66 138 122 94 101 103 108 115 111 113
279 276 275 275 276 277 277 276 274 272 270 267 266 264 258 248 239 236 235 233 231 229 227 228 228 226 223 222 219 215 215 218 216 211 211 206 198 200 204 203 200 205 206 204 203 200 199 191 188 199 205 211 189 159 165 193 217 219 211 234 248 253 241 220 197 147 144 150 128 131 148 122 107 98 94 105 101 90 87 182 184 110 90 91 88 98 109 113
283 280 277 274 273 274 274 275 276 274 271 268 266 264 261 256 246 238 235 234 233 231 227 225 226 226 224 222 220 217 216 218 216 211 212 209 203 200 204 205 203 207 209 208 209 207 206 195 195 208 216 221 198 170 176 194 207 209 203 225 240 248 240 229 281 72 60 29 99 100 117 113 89 69 71 97 110 105 100 75 251 188 61 45 50 68 93 112
287 285 281 277 274 272 271 273 274 276 273 268 265 264 261 258 254 244 236 233 233 232 229 225 223 224 224 223 221 218 217 218 215 211 210 211 208 203 204 207 205 208 211 213 213 213 211 200 203 212 218 223 207 183 185 189 186 166 141 185 240 236 244 344 335 351 347 335 20 44 77 97 314 360 42 56 94 107 108 66 351 301 305 355 8 37 61 92
288 288 286 282 278 273 270 270 272 274 274 270 266 264 261 257 257 253 242 235 232 232 231 227 223 222 223 223 221 218 217 217 215 212 210 211 210 205 205 207 208 210 214 216 214 214 212 205 209 216 221 222 212 199 190 170 135 106 87 38 40 198 41 17 351 357 346 337 345 348 352 328 308 304 340 347 342 35 127 115 354 321 303 308 329 360 22 42
286 287 287 286 283 279 273 269 269 271 272 271 268 264 261 259 260 260 253 243 238 234 233 230 226 223 222 223 223 219 217 218 216 212 210 211 209 206 206 209 211 214 217 217 213 212 209 208 214 218 221 217 208 203 184 154 127 129 140 28 63 108 6 347 339 355 344 335 333 329 349 1 340 317 321 323 318 317 203 163 337 305 295 295 303 321 334 6
283 284 285 287 286 283 279 273 270 269 269 269 269 267 263 262 263 259 257 256 246 238 236 234 230 227 223 221 222 220 218 217 216 214 212 213 211 208 208 211 215 218 218 215 211 209 209 212 215 215 212 208 203 197 178 157 145 154 189 243 255 280 313 313 314 332 332 329 323 311 336 0 352 340 337 330 317 309 293 259 268 275 272 274 288 297 300 321
279 281 282 284 285 285 283 278 273 269 267 267 267 267 268 267 264 257 253 255 250 239 234 233 233 231 227 222 219 220 218 217 217 216 215 215 214 211 210 213 216 217 217 213 210 209 211 215 212 208 208 204 203 201 186 171 163 172 203 233 245 257 277 290 303 318 320 319 315 299 295 327 334 336 343 340 322 299 293 284 261 264 261 259 270 280 286 294
277 278 279 280 282 284 284 282 278 272 268 266 264 267 271 269 263 257 253 249 248 241 232 229 230 230 230 225 220 219 218 216 217 218 218 217 215 214 213 214 213 213 215 213 212 212 215 215 206 203 209 206 207 208 199 189 177 179 203 225 233 238 254 274 295 307 309 307 302 295 297 313 322 322 326 333 325 274 271 278 267 260 257 265 274 270 271 279
276 276 276 278 279 281 282 282 280 275 271 266 266 268 269 268 264 260 256 251 249 249 239 228 227 228 230 228 224 220 216 215 216 217 220 218 215 216 215 213 212 211 215 215 214 215 214 213 202 201 211 211 207 207 205 200 187 184 199 214 222 232 250 267 281 283 286 285 282 289 302 310 315 318 320 324 321 266 240 261 274 269 262 269 279 279 275 273
275 274 275 276 277 278 279 281 278 276 274 269 269 269 266 265 263 261 261 256 251 257 250 235 228 229 230 228 226 222 218 214 214 216 219 219 216 216 215 214 213 212 213 215 215 214 211 210 204 202 211 212 203 202 206 201 187 186 195 203 210 226 249 265 268 263 261 268 277 285 298 303 306 311 315 317 312 280 248 255 277 274 272 274 269 274 280 275
275 274 274 274 275 276 277 278 276 275 276 273 271 268 265 263 261 260 263 259 250 251 253 242 230 229 231 230 227 225 221 215 215 216 216 217 216 214 214 215 215 212 212 214 215 213 207 209 210 206 209 212 206 204 206 198 185 186 193 197 203 215 240 259 259 253 253 263 274 280 287 293 298 306 311 312 305 290 272 271 270 259 270 284 272 263 266 271
274 274 274 273 273 274 274 275 275 274 274 273 271 267 265 263 261 261 263 261 256 250 253 249 233 228 233 233 227 226 222 216 218 219 215 216 216 214 213 214 215 213 211 212 214 212 207 208 213 210 207 208 209 207 203 194 187 186 189 194 200 213 244 259 255 252 258 266 269 270 273 282 291 300 304 305 305 301 292 287 278 259 266 286 281 270 262 265
272 274 274 273 271 271 272 272 274 273 271 272 271 267 266 265 263 262 261 262 264 257 251 249 234 226 230 231 226 224 220 214 217 220 217 217 217 215 214 213 214 213 213 216 215 210 209 210 213 213 211 209 208 206 201 197 193 183 184 194 200 218 250 252 249 254 260 264 266 266 267 275 285 292 294 296 305 312 316 308 296 280 277 283 283 279 273 269
270 272 273 273 271 270 269 269 273 272 269 269 269 268 266 265 265 262 259 261 266 258 247 241 230 221 225 231 228 223 219 213 213 216 215 217 218 216 214 212 213 213 214 218 215 208 211 211 211 214 215 213 207 201 200 203 199 181 182 194 199 210 238 240 238 246 253 258 265 266 265 271 276 281 284 286 296 313 323 320 315 308 300 298 290 288 285 273
269 270 272 272 271 271 269 267 271 271 268 265 266 267 266 264 264 260 259 262 259 252 244 234 225 216 221 231 230 225 222 216 213 214 212 213 217 215 213 210 211 212 213 216 213 208 210 207 208 216 217 213 204 201 205 204 195 187 188 194 195 201 222 234 231 235 249 258 263 261 262 268 270 268 270 276 291 308 312 312 316 316 314 309 299 297 293 276
268 268 270 271 272 272 269 266 267 269 266 263 263 265 264 263 261 257 257 262 253 244 232 221 218 215 217 227 231 226 224 221 217 217 213 211 214 214 211 209 209 210 212 213 210 207 208 206 205 212 218 215 205 204 210 202 192 191 192 192 196 200 206 219 227 235 248 257 260 261 264 267 266 263 267 278 291 298 301 304 309 309 307 303 301 310 305 276
266 267 268 270 271 271 268 266 266 265 263 262 261 262 262 261 258 255 254 258 254 232 194 190 202 216 218 221 228 224 222 224 221 220 216 213 215 215 213 211 210 210 212 214 210 205 207 210 207 205 210 218 212 201 198 196 192 192 192 192 197 201 201 211 227 241 251 256 257 261 264 261 261 265 270 278 284 293 298 299 304 302 292 288 298 317 324 283
266 265 266 268 270 270 267 266 265 262 261 260 259 258 259 258 257 258 253 251 245 197 180 180 173 194 221 220 223 219 218 224 223 221 218 215 218 218 214 214 213 212 214 216 214 210 207 210 212 204 199 208 212 201 190 191 193 189 189 192 195 199 203 212 227 240 248 253 253 254 254 253 258 264 267 273 284 296 298 292 290 286 279 283 296 309 320 312
265 264 265 267 269 267 266 266 265 262 259 258 257 256 256 257 258 258 251 249 229 187 188 187 174 176 197 206 216 216 217 226 225 223 221 216 217 219 215 213 213 212 213 215 216 215 212 212 214 211 205 202 206 204 192 194 203 191 184 189 195 201 207 212 221 229 236 243 247 246 246 249 254 259 263 268 276 285 288 279 272 270 274 285 298 307 310 307
264 263 264 266 267 266 264 264 264 261 257 256 256 255 255 258 260 255 249 245 212 189 190 193 189 185 182 185 204 213 211 228 232 228 227 220 216 220 220 215 215 213 212 214 214 214 216 216 215 216 218 210 204 204 194 197 211 198 186 191 198 204 210 213 218 224 233 242 242 241 246 250 250 253 259 259 258 264 271 270 268 270 280 292 301 310 310 303
263 263 264 264 265 263 261 262 263 262 259 256 256 257 258 260 258 250 243 226 199 191 191 195 195 191 183 182 196 207 202 226 241 236 234 228 218 218 221 219 217 216 215 216 215 214 216 217 213 211 218 219 210 204 198 200 210 204 194 196 199 203 210 215 219 226 234 239 240 241 246 248 249 252 256 253 251 255 262 269 274 277 286 297 303 305 304 302
262 262 263 262 261 261 261 262 263 262 260 256 258 261 261 258 252 243 235 215 197 192 194 195 195 192 186 179 187 211 223 237 251 241 234 234 224 215 218 218 218 218 217 218 216 215 217 216 214 210 212 221 215 201 204 212 215 212 205 202 200 205 212 216 222 233 237 240 243 243 241 243 247 253 257 254 251 255 265 273 276 279 285 291 294 295 299 306
261 261 261 259 259 260 261 261 261 260 258 257 260 262 258 253 248 238 227 208 196 195 196 193 195 197 189 176 177 206 231 244 259 248 233 235 230 216 214 217 217 218 217 216 215 216 217 214 214 213 207 210 212 200 204 216 220 220 218 210 206 209 217 218 221 229 236 242 244 238 234 235 240 248 255 256 256 259 267 272 273 279 284 284 285 289 298 305
260 260 260 258 258 259 260 261 260 258 257 259 263 262 256 250 242 232 221 204 197 199 195 188 193 198 190 177 176 192 216 236 260 258 238 233 232 223 216 213 215 219 218 216 214 213 217 215 211 210 202 200 212 209 205 214 221 218 213 209 209 216 225 228 230 235 240 245 244 242 247 246 241 246 252 255 257 257 259 265 270 274 276 278 282 290 299 302
259 259 258 257 257 257 257 258 258 258 259 262 262 259 252 244 233 227 220 206 202 202 196 188 190 190 181 179 183 187 200 219 241 258 249 236 232 230 225 215 210 216 220 219 216 211 214 216 209 202 196 196 213 220 213 217 224 213 202 200 206 215 224 230 238 244 247 248 247 248 256 255 251 254 255 256 260 259 257 260 263 264 267 274 284 294 299 298
259 258 256 255 256 256 255 256 257 258 259 259 258 253 247 239 230 226 220 209 205 204 199 194 191 182 172 179 186 187 195 207 221 240 249 240 233 229 228 222 211 212 219 220 217 211 211 215 208 198 196 197 208 220 217 221 236 220 208 207 210 213 221 228 233 239 241 241 243 250 260 259 257 258 258 261 262 261 260 261 262 264 269 277 286 294 295 294
259 257 255 254 254 254 253 254 255 256 255 255 254 249 243 235 226 222 220 212 207 207 204 199 192 185 180 178 179 184 197 202 205 222 237 239 239 233 228 229 223 217 221 221 218 214 211 215 209 201 202 202 203 209 208 215 238 226 215 222 224 220 224 226 228 236 238 235 238 249 257 257 254 252 255 261 261 259 261 265 269 272 276 282 287 289 290 292
258 257 254 252 252 252 251 251 252 253 253 250 248 245 240 234 226 221 219 213 209 209 207 201 193 193 194 188 183 188 202 198 191 206 229 233 238 241 233 232 232 226 225 222 218 213 210 212 210 202 204 208 205 206 203 206 223 219 216 226 228 222 224 224 226 234 237 236 241 247 252 255 256 254 257 261 260 257 260 265 271 275 278 282 285 289 292 294
256 255 253 250 250 249 249 248 248 249 248 244 242 241 238 234 227 222 219 214 211 210 208 202 196 198 201 198 197 202 209 203 192 194 219 225 226 231 229 227 230 227 224 221 218 212 208 208 208 202 202 206 205 201 197 197 209 215 218 227 231 227 226 226 225 226 224 229 239 245 250 255 260 263 264 266 264 260 262 266 269 270 274 278 282 288 293 295
254 253 252 250 249 249 248 247 246 246 244 240 238 236 234 231 226 222 218 213 212 212 209 205 202 202 205 203 202 203 207 210 203 193 202 218 220 216 214 218 226 230 226 223 221 216 210 207 206 204 202 203 203 200 198 198 205 214 217 224 232 233 231 232 229 222 220 226 232 239 247 252 256 263 266 268 267 264 264 265 266 268 274 279 281 286 293 296
253 252 252 251 249 248 247 245 244 245 244 242 240 235 231 227 223 222 219 213 211 213 211 208 207 207 209 208 203 200 204 212 210 196 193 210 217 212 208 212 217 220 220 220 225 222 213 208 207 205 204 207 210 209 209 210 212 217 217 218 226 230 231 234 233 224 224 232 237 239 246 250 252 257 264 268 270 268 266 265 268 274 280 280 281 289 297 299
252 250 250 250 248 246 244 242 241 241 242 244 243 238 232 226 221 221 220 213 211 213 212 211 211 210 210 211 205 200 204 211 213 205 194 198 207 209 208 211 213 213 211 212 222 228 219 211 207 204 205 211 213 208 213 225 226 222 220 219 225 232 227 224 225 226 228 232 237 240 243 246 250 254 260 265 268 270 272 274 277 282 284 281 284 293 297 298
250 248 247 247 246 244 242 240 239 238 238 239 239 236 233 227 220 218 219 215 212 213 212 213 214 212 213 215 208 202 204 208 212 215 202 192 195 202 206 209 212 212 209 208 213 222 223 214 208 205 207 209 206 202 212 227 229 225 228 226 225 235 234 221 219 222 225 228 233 239 241 242 247 254 261 265 269 273 276 278 279 280 280 281 285 291 292 295
248 246 244 243 244 243 242 239 236 236 235 235 233 232 231 228 220 215 215 216 213 211 211 213 216 216 216 216 209 203 205 205 208 218 209 192 190 197 202 207 210 211 209 206 207 212 220 218 209 206 208 208 202 199 208 221 225 225 229 229 222 226 231 226 223 223 225 230 235 240 243 246 253 263 268 268 270 271 272 272 273 274 276 280 285 289 290 295
246 244 243 241 241 242 241 238 234 232 232 232 230 229 228 226 222 216 213 214 214 210 208 210 216 218 218 217 211 208 209 206 204 213 211 197 189 192 199 204 207 208 206 203 207 209 212 215 211 208 210 209 202 198 204 215 223 224 223 221 220 222 223 224 227 227 228 232 235 238 241 247 255 261 260 257 257 259 261 264 267 271 275 279 284 288 292 296
245 243 241 240 238 238 239 237 233 229 228 228 229 228 226 224 223 220 214 213 215 212 209 209 214 217 218 219 218 216 214 209 204 207 209 203 193 188 194 200 202 204 203 203 209 213 209 210 212 210 212 212 206 203 206 211 215 217 216 214 217 224 228 228 225 223 224 229 235 239 240 244 252 254 252 253 258 261 263 266 271 274 278 281 285 288 290 290
245 243 240 237 235 235 235 235 233 229 226 226 227 226 224 223 222 220 216 212 214 214 211 211 212 214 218 222 225 224 218 211 207 206 207 206 198 189 192 197 196 198 201 202 206 212 211 209 210 211 214 216 214 212 211 210 208 208 208 210 214 222 229 231 223 219 223 230 238 242 241 242 247 251 254 260 265 268 270 272 274 277 280 281 283 284 285 285
Height
5905 5905 5906 5907 5908 5909 5910 5911 5911 5912 5913 5913 5914 5914 5914 5915 5915 5915 5915 5916 5916 5916 5916 5917 5917 5917 5917 5916 5916 5915 5915 5915 5915 5915 5915 5915 5916 5917 5918 5919 5920 5922 5923 5924 5925 5926 5926 5927 5928 5929 5929 5929 5930 5931 5932 5931 5929 5928 5928 5927 5928 5929 5929 5929 5928 5928 5928 5928 5928 5927 5926 5926 5926 5927 5928 5928 5928 5928 5928 5928 5927 5928 5928 5928 5928 5927 5926 5925
5902 5903 5903 5904 5905 5906 5907 5908 5909 5910 5911 5912 5912 5913 5913 5913 5914 5914 5914 5915 5915 5915 5915 5916 5916 5917 5917 5916 5916 5915 5915 5914 5914 5914 5915 5915 5916 5917 5918 5919 5920 5922 5922 5923 5924 5925 5927 5928 5929 5929 5929 5929 5929 5930 5932 5931 5930 5929 5928 5927 5928 5929 5929 5929 5929 5929 5929 5929 5929 5928 5927 5926 5927 5928 5928 5928 5928 5928 5928 5928 5927 5928 5928 5928 5929 5928 5927 5926
5900 5900 5901 5901 5902 5903 5904 5905 5906 5907 5908 5909 5910 5911 5911 5912 5912 5913 5913 5913 5914 5914 5914 5915 5916 5916 5916 5916 5916 5915 5915 5914 5914 5914 5915 5915 5915 5916 5918 5919 5920 5921 5922 5923 5924 5925 5927 5929 5929 5930 5931 5930 5929 5928 5930 5930 5930 5929 5928 5929 5930 5930 5930 5930 5931 5931 5930 5930 5930 5928 5927 5927 5927 5928 5928 5928 5928 5928 5928 5928 5928 5928 5928 5929 5929 5929 5928 5928
5897 5897 5898 5898 5899 5900 5901 5902 5903 5904 5905 5907 5908 5908 5909 5910 5911 5911 5912 5912 5913 5913 5913 5914 5915 5915 5915 5915 5915 5915 5915 5914 5914 5914 5914 5914 5914 5916 5917 5918 5920 5921 5922 5922 5924 5925 5927 5929 5929 5930 5932 5932 5930 5928 5929 5929 5930 5929 5929 5931 5931 5930 5931 5931 5932 5932 5931 5930 5930 5929 5927 5927 5928 5928 5928 5928 5928 5928 5928 5928 5928 5928 5929 5929 5929 5929 5929 5928
5894 5894 5895 5895 5896 5897 5898 5899 5900 5902 5903 5904 5905 5906 5907 5908 5908 5909 5910 5911 5911 5912 5912 5913 5913 5914 5915 5915 5915 5915 5914 5914 5913 5913 5913 5913 5914 5915 5916 5918 5919 5921 5922 5923 5924 5926 5927 5928 5929 5931 5933 5933 5932 5930 5928 5929 5929 5930 5931 5932 5932 5932 5932 5932 5932 5932 5931 5931 5931 5929 5928 5928 5928 5928 5928 5928 5927 5928 5928 5928 5928 5929 5929 5930 5929 5929 5929 5929
5892 5892 5892 5892 5893 5893 5894 5896 5897 5898 5900 5901 5902 5903 5904 5905 5906 5907 5908 5909 5910 5910 5911 5911 5912 5913 5914 5914 5914 5914 5913 5913 5913 5913 5913 5913 5913 5914 5915 5917 5919 5921 5922 5923 5924 5925 5927 5928 5929 5932 5934 5933 5932 5929 5927 5928 5930 5931 5932 5932 5932 5932 5932 5932 5932 5932 5932 5932 5931 5930 5929 5929 5929 5929 5928 5927 5927 5928 5929 5929 5929 5929 5929 5930 5929 5929 5929 5929
5890 5890 5889 5889 5889 5890 5891 5892 5893 5894 5896 5897 5899 5900 5901 5902 5903 5904 5906 5907 5908 5908 5909 5910 5911 5911 5913 5913 5914 5913 5913 5913 5913 5913 5912 5913 5913 5914 5915 5917 5919 5921 5922 5923 5925 5925 5927 5928 5929 5932 5933 5932 5930 5929 5927 5928 5932 5934 5933 5933 5933 5933 5932 5931 5931 5931 5932 5931 5931 5931 5930 5930 5929 5930 5929 5928 5928 5929 5929 5929 5929 5930 5930 5930 5930 5929 5929 5929
5888 5888 5887 5887 5887 5887 5887 5888 5890 5891 5892 5894 5895 5897 5898 5899 5900 5902 5903 5904 5905 5906 5907 5908 5909 5910 5911 5912 5912 5912 5912 5912 5912 5912 5912 5912 5912 5913 5915 5916 5919 5921 5922 5923 5924 5925 5926 5927 5929 5931 5930 5929 5928 5928 5928 5929 5933 5934 5934 5934 5934 5933 5931 5931 5932 5931 5931 5931 5931 5931 5930 5930 5930 5930 5930 5930 5929 5930 5930 5930 5930 5930 5930 5931 5931 5930 5930 5930
5886 5886 5885 5885 5884 5884 5884 5885 5886 5887 5889 5890 5891 5893 5894 5896 5897 5899 5900 5901 5903 5904 5905 5907 5908 5908 5909 5910 5910 5911 5911 5911 5911 5911 5911 5911 5912 5913 5914 5916 5918 5919 5921 5922 5922 5923 5926 5926 5927 5928 5928 5928 5928 5928 5928 5929 5933 5933 5933 5934 5933 5933 5931 5931 5932 5932 5932 5932 5932 5931 5930 5931 5931 5931 5931 5931 5931 5930 5930 5930 5930 5930 5930 5931 5931 5931 5930 5930
5884 5883 5883 5883 5882 5882 5881 5881 5882 5883 5884 5886 5887 5889 5890 5892 5894 5895 5897 5898 5900 5901 5903 5904 5906 5907 5907 5908 5908 5909 5910 5909 5910 5911 5910 5911 5911 5912 5913 5915 5916 5918 5919 5921 5922 5923 5925 5925 5926 5928 5928 5928 5927 5928 5928 5929 5932 5933 5933 5934 5932 5932 5932 5932 5933 5932 5932 5932 5932 5932 5932 5932 5932 5932 5932 5932 5931 5931 5931 5931 5931 5931 5931 5931 5931 5931 5931 5931
5881 5881 5880 5880 5880 5879 5879 5879 5879 5879 5880 5882 5883 5885 5886 5888 5889 5891 5893 5895 5896 5898 5900 5902 5903 5905 5906 5906 5906 5907 5908 5909 5909 5910 5910 5910 5910 5911 5912 5913 5915 5917 5918 5920 5921 5922 5923 5924 5926 5927 5927 5926 5925 5925 5926 5929 5933 5933 5933 5933 5932 5932 5932 5932 5932 5932 5932 5932 5932 5932 5932 5932 5932 5932 5932 5932 5932 5931 5931 5931 5931 5931 5932 5931 5931 5932 5932 5932
5879 5878 5878 5878 5877 5877 5877 5876 5876 5876 5876 5877 5879 5881 5882 5884 5885 5887 5889 5891 5893 5895 5897 5899 5901 5902 5904 5904 5905 5906 5906 5907 5908 5909 5909 5909 5910 5910 5911 5912 5913 5915 5917 5919 5920 5921 5922 5923 5924 5925 5924 5924 5924 5924 5927 5932 5933 5932 5933 5933 5932 5931 5932 5932 5932 5932 5932 5932 5932 5932 5932 5933 5933 5933 5933 5932 5932 5932 5932 5932 5932 5932 5932 5932 5932 5932 5932 5932
5876 5875 5875 5875 5875 5874 5874 5874 5874 5873 5873 5874 5874 5876 5878 5879 5881 5882 5885 5887 5889 5891 5893 5895 5898 5900 5901 5902 5903 5904 5904 5905 5906 5907 5909 5909 5909 5910 5910 5911 5911 5912 5914 5916 5917 5919 5920 5921 5922 5922 5922 5923 5923 5922 5926 5931 5932 5931 5932 5932 5931 5931 5931 5931 5932 5933 5933 5933 5932 5932 5932 5933 5934 5934 5933 5933 5933 5933 5933 5933 5933 5933 5933 5933 5933 5933 5932 5932
5873 5872 5872 5872 5872 5872 5871 5871 5871 5871 5871 5871 5871 5872 5873 5874 5876 5878 5880 5882 5885 5887 5889 5892 5894 5897 5898 5899 5901 5901 5902 5904 5905 5905 5907 5908 5908 5909 5910 5910 5910 5910 5911 5913 5915 5916 5917 5918 5919 5921 5921 5922 5921 5919 5922 5928 5930 5930 5931 5930 5930 5930 5930 5930 5931 5933 5933 5934 5934 5933 5933 5934 5934 5934 5933 5933 5933 5933 5933 5933 5933 5933 5933 5933 5933 5933 5932 5932
5870 5870 5869 5869 5869 5868 5868 5868 5868 5868 5868 5868 5868 5868 5869 5869 5871 5874 5876 5878 5880 5883 5886 5889 5891 5893 5895 5897 5898 5899 5901 5902 5902 5903 5905 5906 5907 5908 5909 5909 5909 5909 5910 5911 5912 5914 5915 5916 5918 5920 5921 5921 5920 5918 5920 5926 5927 5928 5929 5929 5929 5930 5929 5929 5931 5932 5933 5934 5934 5933 5934 5934 5934 5934 5933 5933 5934 5934 5934 5934 5934 5934 5934 5934 5933 5933 5932 5932
5867 5867 5866 5866 5865 5865 5865 5865 5865 5865 5864 5865 5865 5864 5865 5865 5866 5869 5871 5874 5876 5878 5882 5885 5887 5890 5892 5893 5894 5896 5897 5897 5899 5901 5903 5904 5905 5906 5907 5907 5907 5908 5909 5910 5911 5912 5913 5915 5917 5918 5919 5920 5919 5917 5920 5923 5924 5926 5928 5928 5928 5929 5930 5929 5929 5931 5932 5933 5934 5933 5933 5933 5933 5934 5934 5934 5934 5934 5934 5934 5935 5935 5934 5934 5934 5933 5933 5932
5864 5863 5863 5863 5862 5862 5862 5862 5862 5862 5861 5861 5861 5861 5861 5861 5862 5864 5867 5869 5872 5874 5877 5879 5883 5886 5887 5889 5891 5892 5894 5895 5897 5899 5900 5902 5902 5904 5905 5905 5905 5906 5907 5908 5909 5909 5911 5914 5914 5915 5918 5919 5917 5916 5918 5920 5922 5925 5927 5927 5928 5928 5929 5929 5929 5930 5931 5932 5933 5933 5933 5932 5933 5934 5934 5934 5935 5935 5935 5935 5935 5935 5935 5934 5934 5933 5933 5933
5860 5860 5859 5859 5859 5859 5859 5859 5859 5858 5857 5857 5858 5857 5857 5858 5858 5859 5861 5864 5867 5869 5872 5874 5877 5880 5882 5885 5887 5889 5891 5893 5894 5896 5898 5899 5900 5902 5903 5904 5903 5904 5905 5905 5907 5908 5910 5912 5912 5912 5915 5917 5916 5915 5916 5918 5921 5925 5926 5927 5928 5928 5929 5930 5929 5929 5929 5930 5931 5933 5934 5934 5934 5934 5934 5934 5934 5934 5935 5935 5935 5935 5935 5934 5934 5934 5933 5933
5857 5856 5856 5855 5855 5855 5855 5856 5856 5855 5854 5853 5854 5854 5853 5854 5856 5856 5858 5861 5863 5864 5867 5870 5873 5875 5878 5880 5883 5885 5887 5890 5892 5893 5894 5896 5898 5900 5901 5901 5901 5901 5902 5903 5905 5907 5909 5910 5909 5910 5914 5915 5916 5916 5917 5919 5922 5925 5926 5927 5928 5928 5929 5929 5929 5930 5929 5929 5930 5933 5935 5936 5935 5934 5934 5934 5934 5934 5934 5935 5935 5935 5935 5935 5935 5934 5934 5934
5854 5853 5852 5852 5851 5851 5852 5852 5853 5852 5850 5849 5849 5850 5850 5852 5853 5853 5856 5859 5860 5861 5864 5867 5870 5871 5873 5876 5878 5882 5884 5886 5889 5890 5890 5892 5894 5897 5898 5898 5898 5899 5900 5902 5904 5906 5907 5907 5907 5909 5913 5915 5916 5917 5919 5920 5921 5924 5925 5927 5928 5929 5929 5929 5929 5930 5930 5930 5931 5933 5935 5936 5937 5936 5935 5935 5934 5934 5935 5935 5935 5935 5935 5935 5935 5934 5934 5934
5850 5850 5849 5848 5848 5848 5848 5848 5849 5849 5847 5846 5845 5845 5847 5849 5849 5849 5853 5855 5855 5857 5860 5863 5867 5868 5869 5872 5875 5878 5880 5882 5885 5887 5887 5889 5890 5892 5894 5895 5896 5897 5899 5901 5902 5904 5905 5905 5906 5910 5913 5915 5915 5917 5919 5918 5918 5920 5923 5926 5927 5928 5929 5929 5929 5929 5930 5930 5931 5933 5934 5935 5937 5937 5936 5936 5935 5935 5935 5935 5935 5936 5936 5935 5935 5935 5935 5934
5847 5847 5846 5845 5844 5844 5844 5844 5845 5845 5844 5843 5842 5842 5844 5845 5845 5845 5848 5851 5851 5851 5854 5858 5862 5864 5865 5867 5870 5873 5876 5879 5882 5883 5884 5885 5886 5889 5891 5892 5894 5896 5897 5898 5899 5900 5902 5904 5907 5910 5912 5913 5914 5916 5917 5916 5914 5916 5921 5924 5925 5928 5928 5928 5929 5929 5929 5929 5930 5931 5932 5933 5935 5936 5936 5936 5936 5935 5935 5935 5935 5935 5936 5936 5935 5935 5935 5935
5844 5843 5843 5842 5841 5841 5840 5840 5841 5841 5840 5839 5839 5840 5841 5840 5840 5841 5843 5847 5847 5844 5848 5852 5855 5858 5860 5863 5866 5868 5872 5876 5878 5880 5881 5882 5884 5886 5888 5890 5893 5894 5894 5895 5897 5898 5900 5904 5906 5908 5910 5911 5911 5914 5915 5914 5912 5914 5918 5921 5923 5926 5926 5927 5929 5928 5928 5927 5928 5929 5930 5931 5933 5934 5934 5935 5936 5936 5935 5935 5935 5935 5935 5935 5935 5935 5935 5935
5840 5840 5839 5839 5838 5837 5837 5837 5837 5837 5836 5836 5837 5837 5837 5835 5835 5837 5839 5842 5845 5842 5843 5847 5849 5853 5857 5860 5862 5864 5868 5872 5874 5877 5878 5879 5882 5883 5885 5888 5890 5891 5892 5894 5895 5897 5900 5903 5905 5906 5908 5909 5910 5911 5912 5912 5912 5913 5915 5918 5920 5923 5924 5926 5928 5927 5927 5926 5926 5927 5928 5929 5931 5931 5932 5933 5934 5935 5935 5935 5934 5934 5934 5934 5934 5934 5934 5935
5837 5836 5836 5835 5835 5834 5833 5833 5833 5833 5833 5833 5834 5834 5833 5832 5832 5834 5835 5838 5843 5842 5839 5843 5848 5851 5853 5854 5857 5861 5864 5868 5870 5872 5874 5877 5878 5880 5883 5885 5886 5889 5891 5892 5893 5895 5898 5901 5901 5902 5904 5906 5907 5908 5910 5911 5911 5912 5914 5916 5919 5922 5923 5925 5925 5925 5925 5924 5924 5926 5926 5927 5928 5928 5929 5930 5930 5932 5934 5935 5934 5933 5932 5932 5932 5933 5933 5934
5833 5833 5832 5831 5831 5830 5829 5829 5829 5830 5830 5829 5831 5830 5829 5829 5829 5830 5831 5832 5839 5840 5836 5839 5845 5847 5847 5850 5855 5858 5860 5865 5867 5868 5870 5873 5875 5877 5879 5881 5883 5886 5888 5890 5891 5892 5896 5898 5898 5899 5901 5904 5905 5906 5908 5909 5910 5911 5913 5916 5919 5921 5922 5923 5923 5922 5923 5923 5924 5925 5925 5926 5925 5926 5927 5927 5927 5928 5931 5933 5933 5933 5932 5931 5930 5931 5932 5932
5829 5829 5828 5828 5827 5827 5826 5825 5825 5826 5826 5826 5827 5826 5825 5826 5826 5827 5828 5828 5834 5837 5834 5836 5841 5843 5844 5847 5851 5851 5856 5863 5864 5864 5867 5869 5871 5873 5874 5877 5880 5883 5885 5886 5886 5889 5893 5894 5895 5897 5898 5900 5902 5904 5907 5908 5908 5909 5912 5916 5919 5920 5921 5921 5920 5920 5921 5923 5923 5922 5924 5923 5923 5925 5924 5924 5924 5926 5928 5930 5930 5932 5931 5930 5929 5929 5930 5931
5825 5825 5825 5824 5823 5823 5823 5821 5821 5823 5824 5823 5823 5823 5822 5823 5824 5825 5825 5826 5830 5833 5833 5834 5837 5839 5839 5840 5843 5846 5852 5858 5859 5861 5866 5866 5867 5869 5871 5874 5877 5880 5882 5881 5883 5889 5891 5891 5893 5896 5897 5897 5899 5903 5906 5907 5907 5909 5913 5916 5919 5919 5919 5919 5920 5920 5921 5920 5918 5919 5922 5921 5921 5922 5922 5921 5922 5924 5926 5928 5928 5930 5930 5930 5929 5929 5929 5929
5820 5820 5820 5820 5819 5820 5819 5817 5816 5818 5821 5820 5819 5819 5820 5820 5821 5821 5821 5825 5828 5829 5830 5831 5832 5835 5835 5834 5838 5843 5847 5851 5854 5857 5861 5862 5863 5865 5868 5872 5875 5876 5878 5878 5883 5887 5888 5890 5893 5894 5894 5896 5900 5904 5905 5905 5907 5911 5913 5915 5917 5918 5917 5918 5919 5920 5919 5917 5914 5916 5919 5919 5919 5919 5919 5918 5920 5921 5923 5925 5927 5928 5928 5928 5928 5928 5929 5928
5815 5815 5816 5816 5815 5815 5816 5814 5813 5814 5816 5816 5815 5816 5816 5817 5818 5818 5819 5824 5825 5825 5828 5829 5830 5832 5832 5831 5835 5840 5843 5847 5850 5851 5854 5857 5859 5862 5865 5868 5870 5871 5873 5875 5880 5883 5885 5889 5890 5890 5892 5896 5900 5903 5903 5904 5907 5910 5912 5913 5915 5915 5916 5916 5917 5918 5916 5913 5912 5914 5916 5917 5916 5916 5916 5916 5917 5919 5920 5922 5924 5925 5926 5926 5926 5927 5928 5927
5810 5810 5811 5812 5812 5812 5811 5809 5809 5811 5811 5812 5812 5812 5813 5813 5813 5814 5819 5823 5822 5822 5825 5827 5828 5828 5829 5830 5833 5837 5841 5843 5845 5846 5850 5852 5854 5856 5859 5861 5863 5865 5867 5869 5874 5879 5881 5883 5884 5886 5891 5895 5897 5900 5901 5902 5904 5906 5908 5911 5912 5913 5913 5913 5913 5913 5911 5910 5911 5913 5914 5913 5912 5913 5914 5914 5915 5917 5917 5918 5921 5922 5923 5924 5924 5925 5926 5926
5805 5805 5806 5807 5808 5808 5806 5804 5806 5807 5806 5807 5808 5809 5810 5809 5808 5813 5819 5821 5820 5822 5823 5824 5826 5827 5829 5830 5831 5835 5838 5839 5841 5843 5846 5849 5849 5851 5854 5856 5859 5861 5862 5865 5870 5874 5876 5878 5880 5883 5888 5892 5893 5895 5897 5899 5901 5902 5904 5907 5909 5910 5910 5909 5908 5908 5908 5909 5911 5912 5912 5909 5908 5911 5913 5913 5914 5915 5915 5916 5918 5920 5920 5920 5921 5923 5924 5924
5800 5800 5800 5802 5804 5804 5801 5799 5801 5803 5802 5803 5804 5805 5805 5804 5805 5812 5818 5817 5818 5820 5820 5819 5821 5823 5826 5828 5830 5833 5834 5835 5837 5839 5842 5845 5846 5849 5852 5855 5857 5858 5861 5864 5868 5871 5873 5875 5878 5879 5882 5887 5889 5890 5892 5894 5896 5899 5901 5903 5905 5906 5906 5907 5907 5906 5906 5908 5910 5912 5911 5907 5905 5908 5910 5912 5913 5914 5914 5914 5916 5917 5917 5917 5919 5921 5922 5922
5795 5795 5796 5797 5799 5799 5797 5795 5796 5799 5799 5798 5799 5800 5800 5800 5804 5811 5814 5814 5817 5818 5817 5816 5815 5815 5819 5824 5827 5830 5831 5832 5834 5835 5837 5840 5842 5844 5847 5850 5853 5856 5859 5861 5865 5868 5869 5870 5873 5876 5878 5881 5885 5887 5889 5893 5895 5897 5898 5900 5901 5903 5903 5905 5906 5906 5907 5908 5910 5911 5908 5904 5905 5907 5908 5911 5913 5914 5914 5913 5914 5914 5914 5915 5916 5918 5920 5920
5789 5790 5791 5792 5793 5793 5792 5790 5790 5793 5795 5794 5794 5795 5795 5798 5804 5808 5810 5812 5814 5814 5813 5813 5811 5810 5812 5817 5822 5826 5829 5831 5831 5832 5833 5835 5839 5841 5844 5847 5850 5852 5855 5856 5860 5865 5866 5867 5872 5876 5877 5879 5882 5885 5888 5892 5894 5896 5897 5897 5898 5899 5901 5903 5904 5905 5907 5908 5908 5908 5905 5903 5905 5907 5908 5910 5912 5913 5913 5912 5912 5912 5912 5913 5913 5915 5917 5917
5784 5785 5786 5787 5787 5787 5787 5786 5786 5788 5790 5790 5789 5789 5792 5798 5802 5805 5807 5808 5809 5809 5808 5807 5808 5808 5809 5812 5817 5821 5826 5829 5830 5830 5829 5831 5836 5838 5841 5844 5847 5849 5852 5854 5858 5862 5864 5867 5871 5873 5875 5877 5880 5883 5886 5887 5890 5893 5893 5893 5895 5898 5900 5901 5902 5903 5903 5903 5903 5904 5903 5902 5903 5905 5905 5907 5909 5911 5911 5910 5910 5910 5910 5911 5911 5913 5914 5915
5778 5780 5780 5780 5780 5781 5782 5783 5783 5784 5785 5785 5784 5785 5791 5795 5798 5801 5803 5804 5805 5805 5804 5804 5806 5807 5807 5808 5813 5818 5823 5826 5827 5827 5826 5827 5831 5835 5838 5841 5844 5847 5850 5853 5857 5860 5862 5866 5868 5869 5872 5875 5878 5881 5884 5885 5887 5889 5890 5892 5895 5897 5897 5898 5899 5899 5899 5899 5899 5900 5901 5900 5901 5902 5902 5904 5906 5907 5908 5908 5908 5908 5909 5909 5910 5911 5912 5912
5773 5774 5773 5774 5775 5776 5777 5778 5779 5779 5779 5779 5780 5784 5788 5791 5795 5798 5799 5799 5800 5800 5800 5803 5804 5804 5804 5804 5807 5814 5820 5823 5824 5825 5825 5824 5826 5831 5835 5838 5840 5843 5847 5851 5854 5857 5860 5863 5865 5867 5869 5874 5876 5878 5880 5882 5884 5886 5889 5892 5893 5893 5892 5893 5895 5895 5896 5896 5896 5897 5898 5897 5898 5898 5899 5901 5903 5904 5905 5905 5905 5906 5907 5908 5908 5908 5909 5908
5767 5767 5767 5769 5770 5770 5771 5774 5774 5774 5773 5774 5778 5781 5784 5788 5792 5794 5794 5794 5795 5796 5797 5800 5801 5801 5802 5801 5802 5808 5815 5820 5822 5823 5823 5822 5824 5828 5832 5836 5838 5841 5845 5847 5850 5854 5857 5859 5862 5864 5867 5871 5873 5873 5874 5877 5880 5883 5885 5887 5889 5890 5891 5892 5893 5893 5894 5893 5893 5894 5895 5894 5894 5895 5896 5898 5900 5901 5902 5902 5903 5904 5905 5905 5905 5905 5905 5904
5761 5761 5761 5764 5764 5764 5766 5768 5768 5768 5769 5771 5775 5777 5779 5784 5787 5788 5789 5789 5789 5791 5794 5797 5798 5798 5800 5801 5801 5803 5808 5814 5819 5821 5821 5821 5822 5825 5829 5832 5836 5839 5842 5845 5847 5851 5853 5855 5858 5861 5863 5866 5867 5868 5871 5875 5877 5879 5879 5881 5884 5886 5888 5890 5890 5890 5891 5891 5891 5892 5891 5890 5891 5892 5893 5895 5896 5897 5898 5900 5901 5901 5902 5902 5901 5901 5900 5900
5754 5754 5755 5757 5757 5758 5761 5762 5763 5764 5765 5767 5770 5772 5775 5779 5782 5784 5784 5784 5785 5788 5791 5792 5794 5796 5797 5799 5802 5803 5804 5806 5811 5816 5818 5819 5820 5822 5825 5829 5833 5837 5840 5841 5843 5846 5849 5851 5855 5857 5858 5860 5862 5865 5870 5874 5876 5876 5877 5878 5880 5883 5885 5886 5886 5886 5887 5888 5888 5889 5887 5887 5888 5890 5891 5892 5893 5894 5895 5897 5897 5898 5898 5898 5898 5898 5898 5898
5747 5747 5749 5751 5751 5753 5755 5756 5757 5758 5760 5763 5765 5767 5770 5773 5777 5779 5779 5780 5781 5784 5787 5788 5791 5793 5795 5798 5801 5803 5803 5803 5805 5810 5814 5816 5818 5820 5824 5827 5830 5834 5836 5837 5839 5844 5847 5849 5852 5853 5855 5857 5860 5864 5868 5871 5873 5875 5876 5878 5879 5880 5881 5882 5884 5885 5885 5885 5885 5886 5884 5883 5885 5887 5889 5889 5890 5891 5892 5893 5894 5894 5895 5896 5896 5897 5896 5896
5741 5741 5742 5744 5745 5747 5749 5750 5752 5753 5756 5758 5759 5761 5764 5767 5771 5773 5774 5776 5777 5779 5783 5785 5788 5790 5792 5795 5798 5799 5800 5800 5802 5805 5809 5812 5815 5819 5823 5825 5828 5831 5833 5834 5837 5841 5844 5845 5847 5850 5853 5856 5858 5861 5864 5867 5870 5871 5872 5874 5876 5877 5878 5880 5882 5883 5883 5883 5882 5883 5882 5880 5882 5885 5886 5887 5887 5888 5889 5890 5891 5892 5893 5894 5895 5895 5894 5894
5734 5734 5734 5736 5739 5741 5743 5744 5746 5748 5750 5752 5753 5755 5759 5762 5766 5769 5771 5772 5773 5775 5778 5781 5784 5786 5788 5790 5791 5792 5795 5797 5798 5801 5804 5807 5811 5816 5820 5824 5826 5828 5829 5831 5834 5837 5838 5839 5843 5847 5849 5851 5853 5855 5857 5861 5864 5867 5868 5871 5873 5874 5876 5877 5879 5880 5880 5880 5880 5880 5880 5879 5880 5881 5882 5884 5885 5886 5887 5888 5889 5890 5891 5892 5893 5893 5892 5892
5728 5727 5727 5730 5733 5735 5737 5739 5740 5742 5744 5745 5746 5750 5753 5756 5761 5764 5765 5767 5769 5771 5774 5777 5780 5781 5782 5782 5783 5785 5789 5792 5794 5798 5802 5805 5807 5811 5816 5820 5823 5825 5827 5829 5832 5833 5834 5835 5839 5841 5843 5845 5847 5849 5851 5855 5860 5864 5866 5868 5870 5872 5873 5873 5875 5875 5876 5877 5878 5878 5878 5878 5879 5879 5880 5881 5882 5884 5885 5885 5886 5888 5889 5890 5890 5891 5891 5890
5721 5721 5722 5723 5727 5729 5732 5733 5734 5736 5738 5739 5741 5744 5747 5751 5756 5759 5760 5762 5765 5767 5770 5774 5776 5776 5777 5778 5778 5780 5784 5787 5789 5792 5798 5802 5804 5808 5810 5812 5815 5819 5823 5827 5829 5830 5831 5833 5835 5838 5841 5843 5845 5849 5852 5855 5858 5860 5863 5865 5867 5869 5870 5871 5871 5871 5873 5875 5876 5876 5876 5876 5877 5878 5878 5879 5880 5882 5883 5883 5884 5885 5885 5886 5887 5889 5889 5888
5714 5715 5716 5717 5720 5722 5724 5726 5728 5730 5732 5734 5737 5740 5743 5746 5751 5753 5756 5759 5761 5763 5765 5768 5770 5771 5773 5774 5773 5775 5778 5783 5786 5786 5789 5793 5799 5804 5807 5808 5810 5813 5817 5822 5825 5827 5828 5829 5832 5836 5840 5843 5845 5848 5852 5854 5856 5858 5860 5862 5864 5865 5866 5866 5867 5869 5871 5872 5873 5874 5874 5874 5875 5876 5877 5877 5878 5879 5879 5880 5881 5881 5882 5882 5884 5886 5886 5885
5707 5709 5710 5710 5712 5715 5717 5720 5722 5724 5727 5728 5732 5735 5738 5741 5745 5749 5751 5754 5756 5758 5759 5762 5764 5766 5769 5769 5767 5768 5771 5776 5781 5781 5781 5784 5791 5797 5802 5805 5807 5810 5813 5816 5819 5822 5824 5826 5830 5834 5838 5841 5844 5846 5849 5851 5853 5855 5858 5859 5861 5862 5862 5863 5864 5866 5867 5868 5869 5871 5871 5872 5873 5874 5875 5876 5876 5876 5876 5876 5877 5878 5878 5878 5880 5882 5882 5882
5700 5702 5703 5704 5706 5708 5711 5714 5716 5719 5721 5722 5725 5729 5731 5735 5739 5742 5744 5746 5749 5751 5752 5755 5757 5759 5760 5760 5760 5762 5764 5768 5774 5776 5776 5781 5786 5791 5796 5800 5803 5806 5810 5813 5814 5817 5820 5823 5828 5832 5835 5838 5841 5843 5846 5848 5849 5852 5854 5856 5858 5859 5860 5861 5862 5864 5864 5865 5867 5868 5868 5869 5870 5871 5873 5874 5874 5874 5873 5873 5873 5874 5874 5874 5876 5877 5878 5879
5692 5695 5696 5698 5700 5702 5704 5707 5710 5713 5715 5717 5719 5722 5725 5729 5733 5735 5737 5739 5742 5744 5745 5747 5750 5751 5754 5756 5757 5757 5758 5762 5767 5770 5773 5778 5783 5787 5792 5797 5799 5802 5806 5810 5811 5812 5815 5819 5825 5829 5832 5835 5838 5841 5844 5845 5846 5848 5850 5852 5853 5854 5854 5856 5858 5859 5861 5862 5864 5864 5864 5865 5867 5868 5869 5870 5870 5870 5869 5869 5870 5870 5870 5870 5871 5872 5874 5876
5685 5687 5690 5692 5694 5696 5697 5700 5704 5707 5709 5710 5712 5716 5719 5723 5727 5731 5734 5736 5738 5741 5742 5742 5744 5747 5750 5753 5754 5752 5752 5756 5762 5766 5771 5776 5780 5784 5788 5793 5796 5798 5801 5804 5807 5809 5811 5815 5820 5825 5828 5830 5834 5837 5840 5842 5843 5845 5846 5848 5849 5849 5849 5851 5852 5853 5855 5857 5859 5859 5860 5862 5864 5865 5865 5865 5865 5865 5865 5865 5865 5865 5866 5867 5868 5869 5870 5872
5677 5680 5683 5686 5688 5690 5692 5694 5697 5700 5702 5704 5706 5710 5712 5715 5720 5725 5729 5731 5734 5737 5739 5740 5741 5743 5746 5747 5748 5747 5748 5752 5759 5764 5769 5773 5777 5780 5784 5788 5792 5794 5796 5800 5803 5806 5809 5811 5815 5819 5823 5826 5830 5833 5836 5839 5840 5841 5842 5843 5845 5845 5845 5847 5847 5848 5850 5852 5854 5855 5857 5860 5862 5862 5862 5862 5862 5861 5861 5861 5861 5862 5862 5863 5864 5865 5866 5866